Вернуться в каталог

CZ-4C R/B

АктивенLEO
NORAD 40341·ROCKET BODY·🇨🇳 China

Запущен Dec 10, 2014 с Jiuquan Satellite Launch Center

Loading…

Ближайшие Пролёты (ближайшие 24 часа)

TLE

СвежийSource: Space-Track

Эпоха: Sep 14, 2026, 14:31 UTC

1 40341U 14080D   26257.60525720 -.00000013  00000-0  40746-4 0  9994
2 40341  63.4263 337.2898 0547445 352.9484   6.4068 13.69896798588070

Отслеживайте CZ-4C R/B в реальном времени с AllMySat

Download on the App Store